Weather History for KCBF - January, 2014

Change the Weather History Date:

Monday, January 6, 2014

  Actual Average Record
Temperature  
Mean Temperature -5 °F -  
Max Temperature 1 °F 32 °F 50 °F (2001)
Min Temperature -11 °F 17 °F -11 °F (2014)
Degree Days  
Heating Degree Days 70    
Moisture  
Dew Point -17 °F    
Average Humidity 56    
Maximum Humidity 66    
Minimum Humidity 46    
Precipitation  
Precipitation 0.00 in - - ()
Sea Level Pressure  
Sea Level Pressure 30.39 in    
Wind  
Wind Speed 14 mph (WNW)    
Max Wind Speed 22 mph    
Max Gust Speed 34 mph    
Visibility 10 miles    
Events Snow    
Averages and records for this station are not official NWS values.
T = Trace of Precipitation, MM = Missing Value Source: NWS Daily Summary

Daily Weather History Graph

Daily Weather History Graph

Search for Another Location

Airport or City:

Trip Planner

Search our weather history database for the weather conditions in past years. The results will help you decide how hot, cold, wet, or windy it might be!

Date:

Astronomy

Jan. 06, 2014 Rise Set
Actual Time 7:48 AM CST 5:09 PM CST
Civil Twilight 7:17 AM CST 5:40 PM CST
Nautical Twilight 6:43 AM CST 6:14 PM CST
Astronomical Twilight 6:10 AM CST 6:48 PM CST
Moon 11:00 AM CST 11:48 PM CST
Length of Visible Light 10h 22m
Length of Day
9h 20m
Waxing Crescent, 35% of the Moon is Illuminated
Jan 6
Waxing Crescent
Jan 7
First Quarter
Jan 15
Full
Jan 23
Last Quarter
Jan 30
New

Hourly Weather History & Observations

Time (CST) Temp. Windchill Dew Point Humidity Pressure Visibility Wind Dir Wind Speed Gust Speed Precip Events Conditions
3:15 AM -9.4 °F -35.2 °F -23.8 °F 49% 30.44 in 10.0 mi NW 21.9 mph 29.9 mph N/A Snow Light Snow
3:35 AM -11.2 °F -36.4 °F -23.8 °F 54% 30.44 in 10.0 mi NW 19.6 mph 34.5 mph N/A Snow Light Snow
3:55 AM -11.2 °F -33.7 °F -23.8 °F 54% 30.44 in 10.0 mi NW 15.0 mph 23.0 mph N/A   Mostly Cloudy
4:15 AM -11.2 °F -31.1 °F -23.8 °F 54% 30.44 in 10.0 mi NW 11.5 mph 20.7 mph N/A   Overcast
4:35 AM -11.2 °F -30.1 °F -23.8 °F 54% 30.44 in 10.0 mi NW 10.4 mph 20.7 mph N/A   Overcast
4:55 AM -11.2 °F -32.1 °F -23.8 °F 54% 30.43 in 10.0 mi NW 12.7 mph 18.4 mph N/A   Overcast
5:15 AM -11.2 °F -32.1 °F -23.8 °F 54% 30.43 in 10.0 mi NW 12.7 mph 20.7 mph N/A   Overcast
5:35 AM -11.2 °F -33.7 °F -23.8 °F 54% 30.43 in 10.0 mi NW 15.0 mph 21.9 mph N/A   Overcast
5:55 AM -11.2 °F -32.9 °F -22.0 °F 59% 30.43 in 10.0 mi NW 13.8 mph - N/A   Overcast
6:15 AM -11.2 °F -30.1 °F -22.0 °F 59% 30.43 in 10.0 mi NW 10.4 mph - N/A   Mostly Cloudy
6:35 AM -11.2 °F -31.1 °F -22.0 °F 59% 30.44 in 10.0 mi NW 11.5 mph - N/A   Overcast
6:55 AM -11.2 °F -32.9 °F -22.0 °F 59% 30.44 in 10.0 mi NW 13.8 mph - N/A   Overcast
7:15 AM -11.2 °F -31.1 °F -22.0 °F 59% 30.44 in 10.0 mi NW 11.5 mph 17.3 mph N/A   Mostly Cloudy
7:35 AM -11.2 °F -33.7 °F -22.0 °F 59% 30.44 in 10.0 mi NW 15.0 mph - N/A   Partly Cloudy
7:55 AM -11.2 °F -33.7 °F -22.0 °F 59% 30.44 in 10.0 mi NW 15.0 mph - N/A   Clear
8:15 AM -11.2 °F -32.1 °F -22.0 °F 59% 30.45 in 10.0 mi NW 12.7 mph 19.6 mph N/A   Clear
8:35 AM -11.2 °F -33.7 °F -22.0 °F 59% 30.45 in 10.0 mi NW 15.0 mph 20.7 mph N/A   Clear
8:55 AM -9.4 °F -32.8 °F -22.0 °F 54% 30.46 in 10.0 mi NW 17.3 mph 23.0 mph N/A Snow Light Snow
9:15 AM -9.4 °F -31.4 °F -22.0 °F 54% 30.47 in 10.0 mi NW 15.0 mph - N/A   Clear
9:35 AM -9.4 °F -30.6 °F -22.0 °F 54% 30.46 in 10.0 mi NW 13.8 mph 23.0 mph N/A Snow Light Snow
9:55 AM -7.6 °F -30.5 °F -20.2 °F 54% 30.46 in 10.0 mi WNW 17.3 mph 23.0 mph N/A Snow Light Snow
10:15 AM -7.6 °F -30.5 °F -20.2 °F 54% 30.45 in 10.0 mi NW 17.3 mph - N/A Snow Light Snow
10:35 AM -5.8 °F -28.2 °F -18.4 °F 55% 30.45 in 10.0 mi WNW 17.3 mph - N/A   Partly Cloudy
10:55 AM -5.8 °F -27.5 °F -18.4 °F 55% 30.45 in 10.0 mi WNW 16.1 mph 24.2 mph N/A Snow Light Snow
11:15 AM -5.8 °F -28.2 °F -18.4 °F 55% 30.45 in 10.0 mi WNW 17.3 mph 25.3 mph N/A Snow Light Snow
11:35 AM -4.0 °F -25.8 °F -16.6 °F 55% 30.44 in 10.0 mi NW 17.3 mph 27.6 mph N/A Snow Light Snow
11:55 AM -4.0 °F -26.4 °F -16.6 °F 55% 30.43 in 10.0 mi WNW 18.4 mph 28.8 mph N/A   Partly Cloudy
12:15 PM -4.0 °F -25.2 °F -18.4 °F 50% 30.42 in 10.0 mi NW 16.1 mph 28.8 mph N/A Snow Light Snow
12:35 PM -2.2 °F -22.2 °F -16.6 °F 50% 30.42 in 10.0 mi NW 15.0 mph 21.9 mph N/A   Partly Cloudy
12:55 PM -2.2 °F -25.2 °F -16.6 °F 50% 30.41 in 10.0 mi WNW 20.7 mph - N/A   Scattered Clouds
1:15 PM -2.2 °F -23.5 °F -16.6 °F 50% 30.41 in 10.0 mi WNW 17.3 mph 23.0 mph N/A   Partly Cloudy
1:35 PM -0.4 °F -19.2 °F -16.6 °F 46% 30.39 in 10.0 mi WNW 13.8 mph 24.2 mph N/A Snow Light Snow
1:55 PM -0.4 °F -20.5 °F -14.8 °F 51% 30.39 in 10.0 mi WNW 16.1 mph - N/A   Scattered Clouds
2:15 PM -0.4 °F -21.7 °F -14.8 °F 51% 30.39 in 10.0 mi NW 18.4 mph 24.2 mph N/A Snow Light Snow
2:35 PM 1.4 °F -16.9 °F -13.0 °F 51% 30.39 in 9.0 mi WNW 13.8 mph - N/A   Mostly Cloudy
2:55 PM 1.4 °F -15.3 °F -13.0 °F 51% 30.39 in 10.0 mi NW 11.5 mph - N/A   Scattered Clouds
3:15 PM 1.4 °F -16.9 °F -13.0 °F 51% 30.39 in 10.0 mi WNW 13.8 mph 21.9 mph N/A Snow Light Snow
3:35 PM 1.4 °F -16.1 °F -13.0 °F 51% 30.39 in 10.0 mi WNW 12.7 mph 21.9 mph N/A   Scattered Clouds
3:55 PM 1.4 °F -15.3 °F -11.2 °F 56% 30.39 in 10.0 mi WNW 11.5 mph - N/A   Partly Cloudy
4:15 PM 1.4 °F -16.9 °F -11.2 °F 56% 30.38 in 10.0 mi WNW 13.8 mph 19.6 mph N/A   Partly Cloudy
4:35 PM 1.4 °F -14.5 °F -11.2 °F 56% 30.37 in 10.0 mi WNW 10.4 mph - N/A   Clear
4:55 PM 1.4 °F -9.9 °F -11.2 °F 56% 30.37 in 10.0 mi WNW 5.8 mph - N/A   Clear
5:15 PM 1.4 °F -9.9 °F -13.0 °F 51% 30.36 in 10.0 mi NW 5.8 mph - N/A   Clear
5:35 PM -0.4 °F -12.0 °F -13.0 °F 55% 30.36 in 10.0 mi WNW 5.8 mph - N/A   Clear
5:55 PM -0.4 °F -12.0 °F -13.0 °F 55% 30.36 in 10.0 mi WNW 5.8 mph - N/A   Clear
6:15 PM -0.4 °F -13.4 °F -13.0 °F 55% 30.35 in 10.0 mi WNW 6.9 mph - N/A   Clear
6:35 PM -0.4 °F -12.0 °F -13.0 °F 55% 30.35 in 10.0 mi WNW 5.8 mph - N/A   Clear
6:55 PM -0.4 °F -12.0 °F -13.0 °F 55% 30.35 in 10.0 mi West 5.8 mph - N/A   Clear
7:15 PM -0.4 °F -12.0 °F -13.0 °F 55% 30.35 in 10.0 mi West 5.8 mph - N/A   Clear
7:35 PM -0.4 °F -8.3 °F -13.0 °F 55% 30.35 in 10.0 mi West 3.5 mph - N/A   Clear
7:55 PM -0.4 °F -8.3 °F -13.0 °F 55% 30.34 in 10.0 mi West 3.5 mph - N/A   Clear
8:15 PM -0.4 °F -8.3 °F -13.0 °F 55% 30.34 in 10.0 mi West 3.5 mph - N/A   Clear
8:35 PM -0.4 °F -12.0 °F -13.0 °F 55% 30.32 in 10.0 mi WSW 5.8 mph - N/A   Clear
8:55 PM -0.4 °F -10.4 °F -13.0 °F 55% 30.32 in 10.0 mi SW 4.6 mph - N/A   Clear
9:15 PM -0.4 °F -13.4 °F -13.0 °F 55% 30.32 in 10.0 mi SSW 6.9 mph - N/A   Clear
9:35 PM -0.4 °F -13.4 °F -13.0 °F 55% 30.32 in 10.0 mi SSW 6.9 mph - N/A   Clear
9:55 PM -0.4 °F -14.7 °F -11.2 °F 60% 30.31 in 10.0 mi SSW 8.1 mph - N/A   Clear
10:15 PM -2.2 °F -16.8 °F -11.2 °F 66% 30.31 in 10.0 mi SSW 8.1 mph - N/A   Clear
10:35 PM -2.2 °F -14.2 °F -11.2 °F 66% 30.29 in 10.0 mi SSW 5.8 mph - N/A   Clear
10:55 PM -2.2 °F -14.2 °F -11.2 °F 66% 30.29 in 10.0 mi SSW 5.8 mph - N/A   Clear
11:15 PM -2.2 °F -12.5 °F -11.2 °F 66% 30.29 in 10.0 mi SSW 4.6 mph - N/A   Clear
11:35 PM -2.2 °F -16.8 °F -11.2 °F 66% 30.26 in 10.0 mi South 8.1 mph - N/A   Clear
11:55 PM -2.2 °F -16.8 °F -11.2 °F 66% 30.26 in 10.0 mi SSW 8.1 mph - N/A   Clear